Powrót do katalogu

CUBESAT XI 5

AktywnyKrótkofalarstwoSSO
NORAD 28895·PAYLOAD·🇯🇵 Japan

Wystrzelony Oct 27, 2005 z Plesetsk Cosmodrome

Loading…

Następne Przeloty (najbliższe 24 godziny)

TLE

ŚwieżeSource: Space-Track

Epoka: Sep 13, 2026, 09:17 UTC

1 28895U 05043F   26256.38689568  .00000953  00000-0  15723-3 0  9996
2 28895  98.3101  53.9328 0012785 287.3059  72.6748 14.72823236114731

Śledź CUBESAT XI 5 w czasie rzeczywistym z AllMySat

Download on the App Store